Regional Weather Roundup
Issued by NWS

Home | Current Version | Previous Version | Text Only | Print | Product List | Glossary On
Versions: 1 2 3 4 5 6 7 8 9 10 11 12 13 14 15 16 17 18 19 20 21 22 23 24 25 26 27 28 29 30 31 32 33 34 35 36 37 38 39 40 41 42 43 44 45 46 47 48 49 50
000
ASUS43 KLMK 231610
RWRKY
KENTUCKY REGIONAL WEATHER ROUNDUP
NATIONAL WEATHER SERVICE LOUISVILLE KY
1200 PM EDT WED JUL 23 2014

NOTE "FAIR" INDICATES FEW OR NO CLOUDS BELOW 12,000 FEET
WITH NO SIGNIFICANT WEATHER AND/OR OBSTRUCTIONS TO VISIBILITY.

KYZ001>023-026-027-061>063-070>075-231700-
WESTERN AND SOUTH CENTRAL KENTUCKY

CITY           SKY/WX    TMP DP  RH WIND       PRES   REMARKS
PADUCAH        TSTM      76  71  85 NE10      30.13R
HENDERSON      CLOUDY    72  64  78 CALM      30.03R THUNDER
OWENSBORO      LGT RAIN  77  73  87 S9        30.06S
HOPKINSVILLE   MOSUNNY   86  72  62 VRB3      30.09F HX  92
BOWLING GREEN  CLOUDY    88  71  57 VRB6      30.09F HX  94
GLASGOW        PTSUNNY   84  71  64 N7        30.10F
$$

KYZ024-025-028>034-038-045-046-053-231700-
NORTH CENTRAL KENTUCKY

CITY           SKY/WX    TMP DP  RH WIND       PRES   REMARKS
LOUISVILLE/SDF LGT RAIN  81  72  74 S10       30.04F
LOUISVILLE/LOU CLOUDY    82  70  66 S6        30.05F
FORT KNOX      CLOUDY    80  73  77 S9        30.04F
$$

KYZ035>037-039>044-047>052-055>060-089>105-231700-
NORTHEAST KENTUCKY

CITY           SKY/WX    TMP DP  RH WIND       PRES   REMARKS
LEXINGTON      MOSUNNY   84  70  62 S8        30.08F
COVINGTON      LGT RAIN  71  67  87 N15       30.10R FOG
FRANKFORT      PTSUNNY   81  70  69 W6        30.08R
$$

KYZ054-064>069-076>088-106>120-231700-
SOUTHEAST KENTUCKY

CITY           SKY/WX    TMP DP  RH WIND       PRES   REMARKS
JACKSON        SUNNY     82  70  66 VRB6      30.09F
LONDON         MOSUNNY   85  72  65 W8        30.10F HX  91
SOMERSET       MOSUNNY   84  72  65 W9        30.10F
MIDDLESBORO    PTSUNNY   82  72  71 CALM      30.11F
MONTICELLO     SUNNY     87  74  65 CALM      30.11F HX  95
$$




USA.gov is the U.S. government's official web portal to all federal, state and local government web resources and services.